When you browse on this site, cookies collect data to enhance your experience and personalize the content and advertising you see.
Visit our Privacy Policy to learn more. By continuing to use the site, you agree to this use of cookies and data.
  • In Hungary
  • List of Countries
  • For 7 days
  • Water Temperature
  • Weather Map
  • News
  • Weather Widgets
  • user-avatar
    Login

    Hourly Weather Amadora

    Today, 23 November, Saturday

    Time Temperature Precipitation Wind Pressure Humidity
    00:00 +12°C° 0.1 mm 9 mps 740 mmHg 70%
    01:00 +12°C° 0.1 mm 9 mps 741 mmHg 71%
    02:00 +12°C° 0.1 mm 10 mps 741 mmHg 72%
    03:00 +11°C° 0.2 mm 9 mps 742 mmHg 73%
    04:00 +11°C° 0.2 mm 9 mps 742 mmHg 74%
    05:00 +11°C° 0.2 mm 8 mps 743 mmHg 75%
    06:00 +11°C° 0 mm 8 mps 744 mmHg 74%
    07:00 +11°C° 0 mm 7 mps 745 mmHg 72%
    08:00 +12°C° 0 mm 7 mps 746 mmHg 71%
    09:00 +14°C° 0.1 mm 7 mps 746 mmHg 68%
    10:00 +14°C° 0.1 mm 7 mps 746 mmHg 64%
    11:00 +15°C° 0.1 mm 7 mps 747 mmHg 60%
    12:00 +15°C° 0.1 mm 7 mps 747 mmHg 61%
    13:00 +15°C° 0.1 mm 7 mps 747 mmHg 62%
    14:00 +15°C° 0.1 mm 7 mps 747 mmHg 63%
    15:00 +14°C° 0 mm 6 mps 747 mmHg 67%
    16:00 +13°C° 0 mm 5 mps 748 mmHg 72%
    17:00 +12°C° 0 mm 5 mps 748 mmHg 76%
    18:00 +12°C° 0 mm 4 mps 749 mmHg 77%
    19:00 +11°C° 0 mm 4 mps 749 mmHg 77%
    20:00 +11°C° 0 mm 3 mps 750 mmHg 77%
    21:00 +11°C° 0 mm 3 mps 750 mmHg 79%
    22:00 +11°C° 0 mm 3 mps 750 mmHg 80%
    23:00 +10°C° 0 mm 3 mps 750 mmHg 82%

    Tomorrow, 24 November, Sunday

    Time Temperature Precipitation Wind Pressure Humidity
    00:00 +10°C° 0 mm 3 mps 750 mmHg 83%
    01:00 +11°C° 0 mm 3 mps 750 mmHg 84%
    02:00 +11°C° 0 mm 3 mps 750 mmHg 85%
    03:00 +11°C° 0 mm 3 mps 750 mmHg 85%
    04:00 +10°C° 0 mm 3 mps 750 mmHg 85%
    05:00 +10°C° 0 mm 2 mps 751 mmHg 85%
    06:00 +12°C° 0 mm 2 mps 751 mmHg 83%
    07:00 +13°C° 0 mm 2 mps 751 mmHg 80%
    08:00 +13°C° 0 mm 2 mps 751 mmHg 78%
    09:00 +13°C° 0 mm 3 mps 751 mmHg 75%
    10:00 +14°C° 0 mm 4 mps 751 mmHg 72%
    11:00 +15°C° 0 mm 4 mps 751 mmHg 68%
    12:00 +15°C° 0 mm 5 mps 751 mmHg 70%
    13:00 +16°C° 0 mm 5 mps 751 mmHg 72%
    14:00 +16°C° 0 mm 5 mps 750 mmHg 73%
    15:00 +15°C° 0 mm 5 mps 750 mmHg 78%
    16:00 +15°C° 0 mm 5 mps 750 mmHg 82%
    17:00 +15°C° 0 mm 5 mps 750 mmHg 87%
    18:00 +15°C° 0 mm 6 mps 750 mmHg 88%
    19:00 +15°C° 0 mm 6 mps 750 mmHg 90%
    20:00 +15°C° 0 mm 6 mps 750 mmHg 91%
    21:00 +15°C° 0 mm 6 mps 750 mmHg 92%
    22:00 +15°C° 0 mm 6 mps 750 mmHg 93%
    23:00 +15°C° 0 mm 6 mps 750 mmHg 94%

    Day after tomorrow, 25 November, Monday

    Time Temperature Precipitation Wind Pressure Humidity
    00:00 +16°C° 0.2 mm 6 mps 750 mmHg 94%
    01:00 +16°C° 0.2 mm 5 mps 750 mmHg 94%
    02:00 +16°C° 0.2 mm 5 mps 750 mmHg 95%
    03:00 +16°C° 0.4 mm 5 mps 750 mmHg 95%
    04:00 +17°C° 0.4 mm 4 mps 750 mmHg 96%
    05:00 +17°C° 0.4 mm 4 mps 750 mmHg 97%
    06:00 +17°C° 0 mm 3 mps 750 mmHg 95%
    07:00 +17°C° 0 mm 2 mps 751 mmHg 93%
    08:00 +18°C° 0 mm 1 mps 751 mmHg 91%
    09:00 +18°C° 0 mm 1 mps 751 mmHg 82%
    10:00 +19°C° 0 mm 1 mps 752 mmHg 73%
    11:00 +19°C° 0 mm 2 mps 752 mmHg 64%
    12:00 +19°C° 0 mm 2 mps 752 mmHg 65%
    13:00 +19°C° 0 mm 2 mps 751 mmHg 67%
    14:00 +19°C° 0 mm 2 mps 751 mmHg 68%
    15:00 +18°C° 0 mm 2 mps 751 mmHg 74%
    16:00 +17°C° 0 mm 2 mps 751 mmHg 79%
    17:00 +16°C° 0 mm 2 mps 751 mmHg 84%
    18:00 +16°C° 0 mm 2 mps 751 mmHg 85%
    19:00 +15°C° 0 mm 1 mps 751 mmHg 87%
    20:00 +15°C° 0 mm 1 mps 752 mmHg 88%
    21:00 +15°C° 0 mm 1 mps 751 mmHg 88%
    22:00 +15°C° 0 mm 1 mps 751 mmHg 88%
    23:00 +14°C° 0 mm 1 mps 751 mmHg 88%

    26 November, Tuesday

    Time Temperature Precipitation Wind Pressure Humidity
    00:00 +14°C° 0 mm 1 mps 751 mmHg 89%
    01:00 +14°C° 0 mm 1 mps 750 mmHg 89%
    02:00 +14°C° 0 mm 2 mps 750 mmHg 90%
    03:00 +14°C° 0 mm 2 mps 750 mmHg 91%
    04:00 +14°C° 0 mm 2 mps 750 mmHg 92%
    05:00 +14°C° 0 mm 2 mps 750 mmHg 93%
    06:00 +14°C° 0 mm 2 mps 750 mmHg 92%
    07:00 +14°C° 0 mm 3 mps 750 mmHg 91%
    08:00 +14°C° 0 mm 3 mps 750 mmHg 89%
    09:00 +16°C° 0 mm 3 mps 750 mmHg 84%
    10:00 +17°C° 0 mm 4 mps 750 mmHg 79%
    11:00 +19°C° 0 mm 4 mps 750 mmHg 74%
    12:00 +19°C° 0 mm 4 mps 749 mmHg 76%
    13:00 +19°C° 0 mm 5 mps 749 mmHg 78%
    14:00 +19°C° 0 mm 5 mps 748 mmHg 80%
    15:00 +18°C° 0.1 mm 4 mps 748 mmHg 85%
    16:00 +18°C° 0.1 mm 4 mps 748 mmHg 91%
    17:00 +17°C° 0.1 mm 4 mps 748 mmHg 96%
    18:00 +17°C° 0.4 mm 4 mps 748 mmHg 96%
    19:00 +17°C° 0.4 mm 4 mps 748 mmHg 96%
    20:00 +18°C° 0.4 mm 4 mps 748 mmHg 96%
    21:00 +17°C° 0.1 mm 4 mps 748 mmHg 96%
    22:00 +17°C° 0.1 mm 4 mps 748 mmHg 96%
    23:00 +17°C° 0.1 mm 4 mps 748 mmHg 96%

    27 November, Wednesday

    Time Temperature Precipitation Wind Pressure Humidity
    00:00 +17°C° 0 mm 4 mps 748 mmHg 96%
    01:00 +16°C° 0 mm 5 mps 747 mmHg 96%
    02:00 +16°C° 0 mm 5 mps 747 mmHg 96%
    03:00 +16°C° 0 mm 5 mps 747 mmHg 96%
    04:00 +16°C° 0 mm 6 mps 747 mmHg 96%
    05:00 +16°C° 0 mm 6 mps 747 mmHg 96%
    06:00 +16°C° 0.2 mm 6 mps 747 mmHg 95%
    07:00 +16°C° 0.2 mm 6 mps 747 mmHg 94%
    08:00 +16°C° 0.2 mm 7 mps 747 mmHg 93%
    09:00 +16°C° 0.4 mm 7 mps 747 mmHg 93%
    10:00 +17°C° 0.4 mm 6 mps 748 mmHg 93%
    11:00 +17°C° 0.4 mm 6 mps 748 mmHg 92%
    12:00 +16°C° 0.1 mm 6 mps 748 mmHg 89%
    13:00 +16°C° 0.1 mm 5 mps 748 mmHg 87%
    14:00 +16°C° 0.1 mm 5 mps 747 mmHg 84%
    15:00 +15°C° 0 mm 5 mps 748 mmHg 84%
    16:00 +14°C° 0 mm 5 mps 748 mmHg 84%
    17:00 +13°C° 0 mm 5 mps 749 mmHg 84%
    18:00 +12°C° 0 mm 4 mps 749 mmHg 83%
    19:00 +12°C° 0 mm 4 mps 749 mmHg 82%
    20:00 +11°C° 0 mm 3 mps 750 mmHg 81%
    21:00 +12°C° 0 mm 2 mps 750 mmHg 81%
    22:00 +12°C° 0 mm 2 mps 750 mmHg 80%
    23:00 +12°C° 0 mm 1 mps 750 mmHg 80%

    28 November, Thursday

    Time Temperature Precipitation Wind Pressure Humidity
    00:00 +12°C° 0 mm 1 mps 750 mmHg 80%
    01:00 +11°C° 0 mm 1 mps 750 mmHg 80%
    02:00 +10°C° 0 mm 0 mps 750 mmHg 80%
    03:00 +10°C° 0 mm 0 mps 750 mmHg 80%
    04:00 +10°C° 0 mm 0 mps 750 mmHg 81%
    05:00 +10°C° 0 mm 0 mps 750 mmHg 82%
    06:00 +11°C° 0 mm 0 mps 750 mmHg 80%
    07:00 +11°C° 0 mm 0 mps 751 mmHg 78%
    08:00 +13°C° 0 mm 1 mps 751 mmHg 75%
    09:00 +14°C° 0 mm 1 mps 751 mmHg 71%
    10:00 +15°C° 0 mm 1 mps 751 mmHg 67%
    11:00 +16°C° 0 mm 1 mps 751 mmHg 63%
    12:00 +18°C° 0 mm 1 mps 751 mmHg 62%
    13:00 +18°C° 0 mm 1 mps 750 mmHg 61%
    14:00 +18°C° 0 mm 1 mps 750 mmHg 60%
    15:00 +16°C° 0 mm 1 mps 750 mmHg 66%
    16:00 +14°C° 0 mm 1 mps 750 mmHg 71%
    17:00 +13°C° 0 mm 1 mps 750 mmHg 77%
    18:00 +13°C° 0 mm 1 mps 750 mmHg 77%
    19:00 +13°C° 0 mm 1 mps 750 mmHg 77%
    20:00 +12°C° 0 mm 1 mps 751 mmHg 78%
    21:00 +12°C° 0 mm 1 mps 751 mmHg 78%
    22:00 +12°C° 0 mm 1 mps 751 mmHg 78%
    23:00 +12°C° 0 mm 1 mps 751 mmHg 79%
    Show more